[[{"header":{"parameterUnit":"m.s-1","parameterCategory":1,"la1":30.2991,"la2":30.254,"lo1":-89.0895,"lo2":-89.0444,"dy":0.0017,"dx":0.0017,"nx":28,"ny":28,"refTime":"2023-08-08T09:00:00:Z","depth":0,"parameterNumber":2,"parameterNumberName":"U-component_of_WINDS"},"data":[0,0,0,0,0,0,0,0,0,0,0,0,0,0,0,0,0,0,0,0,0,0,0,0,0,0,0,0,0,0,0,0,0,0,0,0,0,0,0,0,0,0,0,0,0,0,0,0,0,0,0,0,0,0,0,0,0,0,3.7185,3.7187,0,3.7331,3.7333,3.7335,3.732,3.7318,3.7315,3.7313,3.7461,3.7467,3.7473,0,0,0,0,0,0,0,0,0,0,0,0,0,3.6891,3.6897,3.7185,3.7187,3.7189,3.7331,3.7333,3.7335,3.732,3.7317,3.7315,3.7312,3.7459,3.7466,3.7474,0,0,0,0,0,0,0,0,0,0,0,0,0,3.7026,3.6898,3.7185,3.7199,3.7201,3.7331,3.7333,3.7336,3.7321,3.7317,3.7314,3.7311,3.7457,3.7466,3.7475,3.7599,0,0,3.7503,3.7506,0,0,0,0,0,0,0,0,3.7018,3.7037,3.7195,3.7198,3.7201,3.7304,3.7284,3.7424,3.7322,3.7275,3.7313,3.7309,3.7412,3.7424,3.7459,3.7606,3.7612,3.7503,3.7509,3.7513,3.7515,0,0,0,0,0,0,0,3.7009,3.7031,3.7243,3.7197,3.7201,3.7197,3.7212,3.731,3.7361,3.7279,3.7279,3.7296,3.7413,3.745,3.7462,3.7615,3.7503,3.7511,3.7517,3.752,3.7868,3.7871,0,0,0,0,0,0,3.6997,3.7023,3.7238,3.7247,3.71,3.7205,3.7222,3.7274,3.736,3.737,3.7299,3.7295,3.7436,3.7452,3.7468,3.7616,3.7513,3.7521,3.7526,3.7864,3.7869,3.7873,0,0,0,0,0,0,3.6991,3.7016,3.7232,3.7135,3.7162,3.7213,3.7272,3.7279,3.7317,3.7375,3.7383,3.7328,3.7434,3.7455,3.7566,3.7621,3.7525,3.7534,3.786,3.7865,3.7871,3.7916,0,0,0,0,0,0,3.6982,3.7014,3.7063,3.7136,3.7167,3.7329,3.7276,3.7284,3.7332,3.7329,3.7404,3.7414,3.7433,3.7552,3.7575,3.7632,3.7541,3.7855,3.7862,3.7869,3.791,3.7923,3.7934,0,0,0,0,0,3.6972,3.707,3.7065,3.7091,3.7229,3.7333,3.735,3.7371,3.7337,3.7385,3.7422,3.7411,3.7612,3.7564,3.7589,3.765,3.7851,3.786,3.7868,3.7904,3.792,3.7933,0,0,0,0,0,0,3.7002,3.708,3.7075,3.7201,3.726,3.733,3.7392,3.7388,3.7458,3.7451,3.7474,3.7491,3.7602,3.7638,3.7583,3.7773,3.7727,3.7741,3.7746,3.7761,3.7773,3.7761,3.7548,0,0,0,0,0,3.7023,3.7101,3.7165,3.7269,3.7299,3.7341,3.7386,3.7397,3.7459,3.7484,3.7529,3.759,3.7666,3.7716,3.779,3.7915,3.793,3.7969,3.7981,3.7991,3.8002,3.8068,3.8085,3.79,3.79,3.79,0,0,3.7068,3.712,3.7168,3.7277,3.7324,3.7402,3.7362,3.7448,3.7506,3.7497,3.7604,3.7639,3.7708,3.7826,3.7881,3.7859,3.8056,3.8002,3.8009,3.8015,3.8078,3.8096,3.8111,3.7906,3.7905,3.7904,0,0,3.7188,3.7237,3.7328,3.7376,3.7448,3.7474,3.7496,3.7566,3.7589,3.7697,3.7691,3.7761,3.7893,3.7941,3.7983,3.812,3.8111,3.8143,3.8204,3.8268,3.8283,3.8296,3.8342,3.8359,3.8155,3.8155,3.8155,0,3.7234,3.7354,3.7375,3.7461,3.7508,3.7504,3.7594,3.764,3.7732,3.7764,3.7739,3.7902,3.7949,3.8076,3.811,3.8145,3.8168,3.8134,3.8279,3.8293,3.8305,3.8349,3.8367,3.8158,3.8158,3.8157,3.8157,0,3.7405,3.7488,3.7553,3.7641,3.7695,3.7783,3.7817,3.7869,3.7875,3.7903,3.8012,3.8067,3.815,3.8182,3.8189,3.831,3.8294,3.8274,3.8228,3.8325,3.8367,3.8384,3.8163,3.8161,3.816,3.816,0,0,3.7549,3.7647,3.767,3.7709,3.7787,3.7851,3.7938,3.8019,3.8062,3.8126,3.8198,3.8309,3.829,3.8337,3.835,3.8406,3.8508,3.8379,3.8381,3.8398,3.8641,3.8654,3.8673,3.8503,3.8507,3.8509,3.8634,0,3.7675,3.783,3.785,3.7986,3.8061,3.8058,3.8133,3.8188,3.8217,3.8284,3.8316,3.8393,3.8364,3.8392,3.8448,3.8483,3.8556,3.8475,3.8568,3.8571,3.8548,3.8696,3.871,3.8825,3.8651,3.8654,3.8656,0,3.7844,3.7911,3.8054,3.8119,3.8152,3.8219,3.8294,3.8359,3.8421,3.8438,3.849,3.8494,3.8583,3.8534,3.8654,3.8599,3.8638,3.8661,3.8666,3.8673,3.8618,3.8704,3.8863,3.8879,3.8682,3.868,3.8678,0,3.793,3.8057,3.8158,3.8192,3.8272,3.8318,3.8354,3.8412,3.8459,3.8525,3.8555,3.863,3.8671,3.8728,3.8752,3.8715,3.887,3.8824,3.8885,3.8884,3.8916,3.8913,3.908,3.8946,3.8946,3.8945,3.8945,0,3.8068,3.8155,3.8198,3.826,3.8356,3.8379,3.8473,3.8507,3.8559,3.8626,3.8629,3.8691,3.8721,3.8788,3.8808,3.8902,3.8922,3.8936,3.894,3.8935,3.8932,3.8959,3.895,3.895,3.8949,3.8948,3.8947,0,3.8181,3.8213,3.8322,3.8389,3.8407,3.8475,3.8531,3.859,3.8618,3.8703,3.8724,3.8768,3.8846,3.8877,3.8974,3.8986,3.9095,3.9094,3.9074,3.9074,3.9132,3.9125,3.932,3.9345,3.9197,3.9198,3.9199,0,3.8265,3.8332,3.8404,3.8449,3.8486,3.8559,3.8606,3.8631,3.868,3.8754,3.8804,3.8882,3.8946,3.9072,3.9111,3.9185,3.9183,3.9247,3.9194,3.9186,3.9181,3.9175,3.9181,3.9255,3.9257,3.9258,3.9259,0,3.841,3.8423,3.8491,3.8564,3.8621,3.868,3.8737,3.8774,3.8807,3.8861,3.8942,3.8991,3.9089,3.9166,3.924,3.9276,3.9272,3.9276,3.9293,3.9287,3.9271,3.9277,3.9097,3.9271,3.9269,3.9269,3.9268,3.9268,3.851,3.8567,3.8627,3.8702,3.8748,3.8801,3.8858,3.8893,3.8961,3.9042,3.9052,3.9137,3.9195,3.9295,3.9334,3.94,3.9383,3.9409,3.9415,3.942,3.9422,3.9263,3.9414,3.9414,3.9414,3.9413,3.9413,0,3.8653,3.869,3.8759,3.8839,3.8897,3.889,3.8952,3.9001,3.9076,3.9131,3.9193,3.9284,3.9358,3.9403,3.9477,3.9521,3.9522,3.954,3.9535,3.9543,3.9435,3.9411,3.9538,3.9538,3.9538,3.9538,3.9538,3.9538,3.8734,3.883,3.8849,3.8967,3.9004,3.9087,3.9123,3.9171,3.9214,3.9316,3.9377,3.9406,3.9456,3.9533,3.96,3.9612,3.9638,3.9657,3.9666,3.9564,3.9551,3.9539,3.9516,3.9663,3.9663,3.9768,3.9769,3.977]},{"header":{"parameterUnit":"m.s-1","parameterCategory":1,"la1":30.2991,"la2":30.254,"lo1":-89.0895,"lo2":-89.0444,"dy":0.0017,"dx":0.0017,"nx":28,"ny":28,"refTime":"2023-08-08T09:00:00:Z","depth":0,"parameterNumber":3,"parameterNumberName":"V-component_of_WINDS"},"data":[0,0,0,0,0,0,0,0,0,0,0,0,0,0,0,0,0,0,0,0,0,0,0,0,0,0,0,0,0,0,0,0,0,0,0,0,0,0,0,0,0,0,0,0,0,0,0,0,0,0,0,0,0,0,0,0,0,0,0.8027,0.8027,0,0.8047,0.8047,0.8047,0.8017,0.8016,0.8015,0.8014,0.8037,0.8038,0.804,0,0,0,0,0,0,0,0,0,0,0,0,0,0.7963,0.7964,0.8027,0.8027,0.8027,0.8047,0.8047,0.8047,0.8017,0.8016,0.8015,0.8014,0.8036,0.8038,0.804,0,0,0,0,0,0,0,0,0,0,0,0,0,0.7988,0.7965,0.8027,0.8015,0.8014,0.8047,0.8047,0.8047,0.8018,0.8016,0.8014,0.8013,0.8035,0.8038,0.804,0.8087,0,0,0.8047,0.8048,0,0,0,0,0,0,0,0,0.7986,0.799,0.8016,0.8015,0.8014,0.8028,0.8033,0.8061,0.8018,0.8016,0.8014,0.8012,0.8035,0.8037,0.8045,0.8088,0.8089,0.8048,0.8049,0.805,0.8051,0,0,0,0,0,0,0,0.7985,0.7989,0.8035,0.8016,0.8016,0.8008,0.801,0.8038,0.8034,0.8016,0.8014,0.8017,0.8034,0.8042,0.8045,0.8089,0.8048,0.805,0.8051,0.8052,0.817,0.8172,0,0,0,0,0,0,0.7984,0.7988,0.8034,0.8035,0.7996,0.8011,0.8013,0.8025,0.8034,0.8034,0.8018,0.8015,0.8039,0.8042,0.8046,0.8101,0.805,0.8052,0.8054,0.8168,0.817,0.8172,0,0,0,0,0,0,0.7983,0.7989,0.8033,0.8011,0.8016,0.8014,0.8028,0.8026,0.8034,0.8035,0.8035,0.8027,0.8038,0.8042,0.8076,0.8101,0.8053,0.8055,0.8166,0.8169,0.8171,0.8211,0,0,0,0,0,0,0.7981,0.7988,0.8006,0.8012,0.8017,0.8064,0.8029,0.8028,0.8038,0.8035,0.8044,0.8043,0.8037,0.8073,0.8079,0.8103,0.8057,0.8164,0.8167,0.817,0.8208,0.8215,0.8221,0,0,0,0,0,0.7979,0.8017,0.8007,0.8013,0.8039,0.8065,0.8068,0.806,0.8041,0.8058,0.8059,0.8043,0.8097,0.8077,0.8083,0.8109,0.8163,0.8166,0.817,0.8205,0.8213,0.8221,0,0,0,0,0,0,0.8016,0.8018,0.8007,0.8047,0.8056,0.806,0.8082,0.8069,0.8084,0.8081,0.807,0.8072,0.8108,0.8111,0.8089,0.8154,0.8127,0.8132,0.8151,0.8159,0.8165,0.8165,0.8059,0,0,0,0,0,0.8028,0.8049,0.8049,0.8085,0.809,0.8085,0.8096,0.8088,0.8097,0.8101,0.8104,0.8114,0.8133,0.8146,0.8163,0.8207,0.8209,0.8228,0.8234,0.824,0.8245,0.8268,0.8277,0.8185,0.8185,0.8185,0,0,0.8055,0.8059,0.8072,0.8093,0.8098,0.812,0.8089,0.8113,0.8129,0.8105,0.8138,0.814,0.8149,0.8189,0.8206,0.8193,0.827,0.8245,0.8249,0.8251,0.8273,0.8282,0.829,0.8187,0.8187,0.8187,0,0,0.8115,0.812,0.815,0.8156,0.8165,0.8161,0.8168,0.8173,0.8174,0.8205,0.8188,0.8206,0.8239,0.8247,0.8255,0.8316,0.8302,0.8322,0.8357,0.838,0.8387,0.8393,0.8416,0.8424,0.8326,0.8327,0.8327,0,0.8148,0.818,0.8167,0.8193,0.8202,0.8179,0.821,0.8217,0.8231,0.8238,0.8222,0.8262,0.8268,0.8308,0.8323,0.833,0.8338,0.8322,0.8387,0.8393,0.8399,0.842,0.8428,0.8329,0.8329,0.8328,0.8328,0,0.8219,0.8241,0.8264,0.8278,0.829,0.8318,0.831,0.8323,0.8313,0.8311,0.8344,0.8349,0.8366,0.8375,0.8367,0.8414,0.8406,0.8388,0.8361,0.841,0.843,0.8438,0.8332,0.8331,0.8331,0.833,0,0,0.8306,0.831,0.8319,0.8325,0.8332,0.8349,0.8375,0.8391,0.8403,0.8413,0.8435,0.8462,0.8446,0.8455,0.8447,0.8467,0.8515,0.8447,0.8447,0.8461,0.8568,0.8582,0.8592,0.8505,0.8507,0.8508,0.8568,0,0.8366,0.8412,0.84,0.8446,0.8466,0.8443,0.8466,0.8473,0.8471,0.8488,0.8486,0.8506,0.8482,0.8488,0.8506,0.8506,0.8537,0.8501,0.8527,0.8528,0.8527,0.8602,0.8617,0.8674,0.8575,0.8577,0.8578,0,0.8444,0.8455,0.8502,0.8505,0.8513,0.8534,0.8548,0.8564,0.857,0.8568,0.8577,0.8564,0.859,0.8561,0.8597,0.8573,0.8582,0.8583,0.8585,0.8589,0.8557,0.8609,0.8692,0.8701,0.8589,0.8588,0.8588,0,0.8503,0.8531,0.8562,0.8567,0.8571,0.8586,0.8588,0.8593,0.8604,0.8615,0.8622,0.8637,0.8645,0.8657,0.8649,0.8628,0.8686,0.8656,0.8685,0.8686,0.8701,0.87,0.8787,0.8704,0.8704,0.8704,0.8703,0,0.8573,0.8603,0.8589,0.8608,0.8641,0.8627,0.866,0.8659,0.8664,0.8683,0.8664,0.8683,0.867,0.8687,0.868,0.8711,0.8715,0.8714,0.8712,0.8717,0.8717,0.8724,0.8721,0.8706,0.8705,0.8705,0.8705,0,0.8646,0.8638,0.8671,0.867,0.8671,0.8695,0.8695,0.8713,0.8709,0.8733,0.8738,0.8732,0.8751,0.8743,0.8764,0.8759,0.8799,0.8792,0.8797,0.8796,0.8826,0.8823,0.8922,0.8934,0.8842,0.8843,0.8843,0,0.8692,0.8714,0.8716,0.8727,0.873,0.8749,0.8758,0.8745,0.8756,0.8765,0.8782,0.8799,0.8813,0.8844,0.8842,0.8857,0.8851,0.8884,0.8853,0.8857,0.8853,0.8852,0.8854,0.8891,0.8892,0.8893,0.8894,0,0.8775,0.8769,0.8784,0.8797,0.8809,0.8819,0.8827,0.8837,0.8824,0.8837,0.8856,0.8867,0.8887,0.8904,0.8918,0.892,0.8905,0.8903,0.8911,0.8916,0.8919,0.8919,0.8816,0.8901,0.8901,0.89,0.89,0.8899,0.8837,0.8855,0.8859,0.8876,0.888,0.8888,0.8905,0.8902,0.8917,0.8932,0.8923,0.8945,0.895,0.8966,0.8971,0.8988,0.8975,0.8986,0.8989,0.8992,0.8997,0.8915,0.899,0.899,0.899,0.8989,0.8989,0,0.892,0.892,0.8936,0.8947,0.896,0.8943,0.8951,0.8963,0.8983,0.8988,0.9001,0.9022,0.9039,0.9037,0.9052,0.9066,0.9059,0.9071,0.907,0.9071,0.9007,0.8999,0.9076,0.9076,0.9076,0.9075,0.9075,0.9075,0.8965,0.8995,0.8989,0.9021,0.9022,0.9043,0.9049,0.9056,0.906,0.9085,0.9098,0.9096,0.9098,0.9113,0.9127,0.9126,0.9133,0.9147,0.9144,0.9084,0.9076,0.9068,0.906,0.9148,0.9148,0.9206,0.9207,0.9207]}]]